When you browse on this site, cookies collect data to enhance your experience and personalize the content and advertising you see.
Visit our Privacy Policy to learn more. By continuing to use the site, you agree to this use of cookies and data.
  • In Österreich
  • Länderverzeichnis
  • Für 7 Tage
  • Wassertemperatur
  • Wetterkarte
  • News
  • Widgets
  • user-avatar
    Anmelden

    Stündliche Wetter Samroung

    Heute, 20 Januar, Montag

    Zeit Temperatur Niederschläge Wind Luftdruck Luftfeuchtigkeit
    00:00 +26°C° 0 mm 2 m/S 758 mmHg 80%
    01:00 +26°C° 0 mm 2 m/S 758 mmHg 79%
    02:00 +26°C° 0 mm 3 m/S 758 mmHg 82%
    03:00 +25°C° 0 mm 3 m/S 757 mmHg 84%
    04:00 +25°C° 0 mm 3 m/S 757 mmHg 87%
    05:00 +25°C° 0 mm 3 m/S 757 mmHg 86%
    06:00 +25°C° 0 mm 3 m/S 758 mmHg 85%
    07:00 +25°C° 0 mm 3 m/S 758 mmHg 84%
    08:00 +27°C° 0 mm 2 m/S 758 mmHg 73%
    09:00 +30°C° 0 mm 2 m/S 758 mmHg 62%
    10:00 +34°C° 0 mm 2 m/S 759 mmHg 51%
    11:00 +35°C° 0 mm 2 m/S 758 mmHg 49%
    12:00 +35°C° 0 mm 2 m/S 758 mmHg 46%
    13:00 +36°C° 0 mm 2 m/S 757 mmHg 44%
    14:00 +36°C° 0 mm 2 m/S 757 mmHg 45%
    15:00 +36°C° 0 mm 2 m/S 756 mmHg 47%
    16:00 +35°C° 0 mm 2 m/S 755 mmHg 48%
    17:00 +32°C° 0 mm 2 m/S 756 mmHg 57%
    18:00 +30°C° 0 mm 1 m/S 757 mmHg 66%
    19:00 +28°C° 0 mm 1 m/S 757 mmHg 76%
    20:00 +28°C° 0 mm 1 m/S 758 mmHg 78%
    21:00 +27°C° 0 mm 1 m/S 759 mmHg 81%
    22:00 +27°C° 0 mm 2 m/S 759 mmHg 84%
    23:00 +27°C° 0.1 mm 1 m/S 759 mmHg 84%

    Morgen, 21 Januar, Dienstag

    Zeit Temperatur Niederschläge Wind Luftdruck Luftfeuchtigkeit
    00:00 +26°C° 0.1 mm 1 m/S 759 mmHg 85%
    01:00 +26°C° 0.1 mm 1 m/S 759 mmHg 85%
    02:00 +26°C° 0 mm 2 m/S 759 mmHg 87%
    03:00 +26°C° 0 mm 2 m/S 759 mmHg 88%
    04:00 +25°C° 0 mm 2 m/S 758 mmHg 90%
    05:00 +25°C° 0 mm 2 m/S 758 mmHg 89%
    06:00 +25°C° 0 mm 2 m/S 759 mmHg 87%
    07:00 +25°C° 0 mm 2 m/S 759 mmHg 86%
    08:00 +28°C° 0 mm 2 m/S 759 mmHg 76%
    09:00 +30°C° 0 mm 2 m/S 760 mmHg 65%
    10:00 +34°C° 0 mm 2 m/S 760 mmHg 55%
    11:00 +35°C° 0 mm 2 m/S 759 mmHg 51%
    12:00 +36°C° 0 mm 2 m/S 759 mmHg 48%
    13:00 +37°C° 0 mm 2 m/S 758 mmHg 45%
    14:00 +36°C° 0 mm 2 m/S 757 mmHg 46%
    15:00 +36°C° 0 mm 2 m/S 757 mmHg 48%
    16:00 +35°C° 0 mm 2 m/S 756 mmHg 49%
    17:00 +32°C° 0 mm 2 m/S 757 mmHg 58%
    18:00 +30°C° 0 mm 1 m/S 757 mmHg 66%
    19:00 +26°C° 0 mm 0 m/S 758 mmHg 75%
    20:00 +28°C° 0 mm 1 m/S 758 mmHg 78%
    21:00 +28°C° 0 mm 2 m/S 759 mmHg 81%
    22:00 +27°C° 0 mm 2 m/S 759 mmHg 84%
    23:00 +27°C° 0 mm 2 m/S 759 mmHg 86%

    übermorgen, 22 Januar, Mittwoch

    Zeit Temperatur Niederschläge Wind Luftdruck Luftfeuchtigkeit
    00:00 +27°C° 0 mm 1 m/S 759 mmHg 87%
    01:00 +26°C° 0 mm 1 m/S 759 mmHg 88%
    02:00 +26°C° 0 mm 1 m/S 759 mmHg 89%
    03:00 +26°C° 0 mm 1 m/S 758 mmHg 90%
    04:00 +25°C° 0 mm 1 m/S 758 mmHg 91%
    05:00 +26°C° 0 mm 1 m/S 758 mmHg 90%
    06:00 +26°C° 0 mm 1 m/S 758 mmHg 88%
    07:00 +26°C° 0 mm 1 m/S 759 mmHg 87%
    08:00 +28°C° 0 mm 2 m/S 759 mmHg 76%
    09:00 +31°C° 0 mm 2 m/S 759 mmHg 65%
    10:00 +35°C° 0 mm 2 m/S 760 mmHg 54%
    11:00 +35°C° 0 mm 2 m/S 759 mmHg 52%
    12:00 +36°C° 0 mm 2 m/S 758 mmHg 50%
    13:00 +36°C° 0 mm 2 m/S 757 mmHg 48%
    14:00 +36°C° 0 mm 2 m/S 757 mmHg 51%
    15:00 +35°C° 0 mm 2 m/S 756 mmHg 53%
    16:00 +35°C° 0 mm 3 m/S 755 mmHg 55%
    17:00 +32°C° 0.1 mm 2 m/S 756 mmHg 65%
    18:00 +30°C° 0.1 mm 2 m/S 756 mmHg 76%
    19:00 +28°C° 0.1 mm 2 m/S 756 mmHg 86%
    20:00 +28°C° 0 mm 2 m/S 757 mmHg 87%
    21:00 +27°C° 0 mm 2 m/S 758 mmHg 89%
    22:00 +27°C° 0 mm 2 m/S 758 mmHg 91%
    23:00 +27°C° 0 mm 2 m/S 758 mmHg 91%

    23 Januar, Donnerstag

    Zeit Temperatur Niederschläge Wind Luftdruck Luftfeuchtigkeit
    00:00 +26°C° 0 mm 1 m/S 758 mmHg 92%
    01:00 +26°C° 0 mm 1 m/S 757 mmHg 93%
    02:00 +26°C° 0 mm 1 m/S 757 mmHg 93%
    03:00 +26°C° 0 mm 2 m/S 757 mmHg 94%
    04:00 +26°C° 0 mm 2 m/S 756 mmHg 94%
    05:00 +26°C° 0 mm 2 m/S 757 mmHg 94%
    06:00 +26°C° 0 mm 2 m/S 757 mmHg 93%
    07:00 +26°C° 0 mm 3 m/S 758 mmHg 93%
    08:00 +28°C° 0 mm 3 m/S 758 mmHg 82%
    09:00 +30°C° 0 mm 3 m/S 758 mmHg 72%
    10:00 +33°C° 0 mm 3 m/S 758 mmHg 61%
    11:00 +34°C° 0 mm 3 m/S 758 mmHg 57%
    12:00 +35°C° 0 mm 3 m/S 757 mmHg 52%
    13:00 +36°C° 0 mm 2 m/S 756 mmHg 48%
    14:00 +36°C° 0 mm 2 m/S 756 mmHg 49%
    15:00 +36°C° 0 mm 2 m/S 755 mmHg 50%
    16:00 +35°C° 0 mm 2 m/S 754 mmHg 51%
    17:00 +32°C° 0 mm 2 m/S 755 mmHg 60%
    18:00 +30°C° 0 mm 1 m/S 755 mmHg 70%
    19:00 +28°C° 0 mm 1 m/S 755 mmHg 80%
    20:00 +27°C° 0 mm 1 m/S 756 mmHg 82%
    21:00 +27°C° 0 mm 1 m/S 757 mmHg 84%
    22:00 +27°C° 0 mm 1 m/S 757 mmHg 86%
    23:00 +26°C° 0 mm 1 m/S 757 mmHg 87%

    24 Januar, Freitag

    Zeit Temperatur Niederschläge Wind Luftdruck Luftfeuchtigkeit
    00:00 +26°C° 0 mm 1 m/S 757 mmHg 88%
    01:00 +26°C° 0 mm 1 m/S 757 mmHg 89%
    02:00 +25°C° 0 mm 1 m/S 756 mmHg 90%
    03:00 +25°C° 0 mm 1 m/S 756 mmHg 90%
    04:00 +25°C° 0 mm 1 m/S 756 mmHg 91%
    05:00 +25°C° 0.1 mm 2 m/S 756 mmHg 90%
    06:00 +26°C° 0.1 mm 2 m/S 757 mmHg 89%
    07:00 +26°C° 0.1 mm 3 m/S 757 mmHg 87%
    08:00 +28°C° 0 mm 3 m/S 758 mmHg 78%
    09:00 +30°C° 0 mm 3 m/S 758 mmHg 68%
    10:00 +33°C° 0 mm 3 m/S 758 mmHg 58%
    11:00 +34°C° 0 mm 3 m/S 758 mmHg 54%
    12:00 +35°C° 0 mm 3 m/S 757 mmHg 50%
    13:00 +36°C° 0 mm 3 m/S 756 mmHg 47%
    14:00 +35°C° 0 mm 3 m/S 756 mmHg 49%
    15:00 +34°C° 0 mm 3 m/S 755 mmHg 52%
    16:00 +34°C° 0 mm 3 m/S 754 mmHg 55%
    17:00 +31°C° 0 mm 3 m/S 755 mmHg 64%
    18:00 +29°C° 0 mm 2 m/S 755 mmHg 73%
    19:00 +27°C° 0 mm 1 m/S 755 mmHg 82%
    20:00 +27°C° 0 mm 1 m/S 756 mmHg 83%
    21:00 +26°C° 0 mm 1 m/S 756 mmHg 85%
    22:00 +26°C° 0 mm 1 m/S 757 mmHg 87%
    23:00 +26°C° 0 mm 1 m/S 757 mmHg 88%

    25 Januar, Samstag

    Zeit Temperatur Niederschläge Wind Luftdruck Luftfeuchtigkeit
    00:00 +26°C° 0 mm 2 m/S 757 mmHg 89%
    01:00 +26°C° 0 mm 2 m/S 756 mmHg 90%
    02:00 +26°C° 0.1 mm 2 m/S 756 mmHg 91%
    03:00 +26°C° 0.1 mm 2 m/S 756 mmHg 92%
    04:00 +26°C° 0.1 mm 2 m/S 756 mmHg 94%
    05:00 +26°C° 0.4 mm 2 m/S 756 mmHg 94%
    06:00 +26°C° 0.4 mm 2 m/S 756 mmHg 94%
    07:00 +26°C° 0.4 mm 2 m/S 757 mmHg 94%
    08:00 +27°C° 0.1 mm 2 m/S 757 mmHg 89%
    09:00 +28°C° 0.1 mm 3 m/S 758 mmHg 84%
    10:00 +29°C° 0.1 mm 3 m/S 758 mmHg 79%
    11:00 +30°C° 0.1 mm 3 m/S 757 mmHg 73%
    12:00 +31°C° 0.1 mm 3 m/S 756 mmHg 68%
    13:00 +33°C° 0.1 mm 3 m/S 756 mmHg 63%
    14:00 +33°C° 0.2 mm 3 m/S 755 mmHg 62%
    15:00 +33°C° 0.2 mm 3 m/S 755 mmHg 61%
    16:00 +33°C° 0.2 mm 3 m/S 754 mmHg 60%
    17:00 +30°C° 0.1 mm 2 m/S 755 mmHg 69%
    18:00 +28°C° 0.1 mm 2 m/S 755 mmHg 77%
    19:00 +26°C° 0.1 mm 2 m/S 755 mmHg 85%
    20:00 +26°C° 0 mm 1 m/S 756 mmHg 87%
    21:00 +26°C° 0 mm 1 m/S 756 mmHg 88%
    22:00 +25°C° 0 mm 1 m/S 757 mmHg 89%
    23:00 +25°C° 0 mm 1 m/S 756 mmHg 90%
    Mehr zeigen